When you browse on this site, cookies collect data to enhance your experience and personalize the content and advertising you see.
Visit our Privacy Policy to learn more. By continuing to use the site, you agree to this use of cookies and data.
  • In Lithuania
  • List of Countries
  • For 7 days
  • Water Temperature
  • Satellite Maps
  • Weather Map
  • Weather Widgets
  • user-avatar
    Login

    Hourly Weather Mashkovo

    Today, 19 March, Tuesday

    Time Temperature Precipitation Wind Pressure Humidity
    00:00 -2°C° 0 mm 7 mps 747 mmHg 96%
    01:00 -2°C° 0 mm 6 mps 747 mmHg 95%
    02:00 -2°C° 0 mm 6 mps 747 mmHg 94%
    03:00 -2°C° 0 mm 7 mps 746 mmHg 93%
    04:00 -2°C° 0 mm 7 mps 746 mmHg 91%
    05:00 -1°C° 0 mm 6 mps 746 mmHg 90%
    06:00 -1°C° 0 mm 6 mps 746 mmHg 89%
    07:00 -1°C° 0 mm 6 mps 746 mmHg 90%
    08:00 -1°C° 0 mm 6 mps 746 mmHg 92%
    09:00 -1°C° 0 mm 7 mps 746 mmHg 93%
    10:00 -1°C° 0 mm 6 mps 746 mmHg 95%
    11:00 -1°C° 0 mm 6 mps 746 mmHg 97%
    12:00 +1°C° 0 mm 6 mps 746 mmHg 99%
    13:00 +1°C° 0.1 mm 6 mps 747 mmHg 99%
    14:00 +1°C° 0.1 mm 6 mps 747 mmHg 99%
    15:00 +1°C° 0 mm 4 mps 747 mmHg 99%
    16:00 +1°C° 0.2 mm 4 mps 747 mmHg 99%
    17:00 +1°C° 0.2 mm 4 mps 747 mmHg 98%
    18:00 0°C° 0.2 mm 4 mps 747 mmHg 97%
    19:00 0°C° 0 mm 4 mps 748 mmHg 97%
    20:00 0°C° 0 mm 4 mps 748 mmHg 97%
    21:00 +1°C° 0 mm 3 mps 748 mmHg 97%
    22:00 +1°C° 0.1 mm 3 mps 748 mmHg 97%
    23:00 0°C° 0.1 mm 3 mps 748 mmHg 97%

    Tomorrow, 20 March, Wednesday

    Time Temperature Precipitation Wind Pressure Humidity
    00:00 0°C° 0.1 mm 3 mps 748 mmHg 98%
    01:00 0°C° 0 mm 3 mps 748 mmHg 98%
    02:00 0°C° 0 mm 3 mps 748 mmHg 97%
    03:00 0°C° 0 mm 3 mps 748 mmHg 97%
    04:00 0°C° 0 mm 3 mps 748 mmHg 97%
    05:00 -1°C° 0 mm 3 mps 748 mmHg 96%
    06:00 -1°C° 0 mm 3 mps 748 mmHg 95%
    07:00 0°C° 0 mm 3 mps 748 mmHg 93%
    08:00 0°C° 0 mm 3 mps 749 mmHg 92%
    09:00 0°C° 0 mm 3 mps 749 mmHg 90%
    10:00 +1°C° 0 mm 3 mps 749 mmHg 87%
    11:00 +2°C° 0 mm 3 mps 749 mmHg 83%
    12:00 +3°C° 0 mm 3 mps 749 mmHg 80%
    13:00 +3°C° 0 mm 4 mps 749 mmHg 78%
    14:00 +3°C° 0 mm 4 mps 749 mmHg 76%
    15:00 +3°C° 0 mm 4 mps 749 mmHg 74%
    16:00 +2°C° 0 mm 3 mps 749 mmHg 77%
    17:00 +2°C° 0 mm 3 mps 749 mmHg 81%
    18:00 +1°C° 0 mm 3 mps 749 mmHg 84%
    19:00 0°C° 0 mm 3 mps 749 mmHg 86%
    20:00 +1°C° 0 mm 2 mps 750 mmHg 88%
    21:00 -1°C° 0 mm 2 mps 750 mmHg 89%
    22:00 -1°C° 0 mm 3 mps 750 mmHg 88%
    23:00 -1°C° 0 mm 3 mps 749 mmHg 87%

    Day after tomorrow, 21 March, Thursday

    Time Temperature Precipitation Wind Pressure Humidity
    00:00 -1°C° 0 mm 3 mps 749 mmHg 85%
    01:00 -1°C° 0 mm 3 mps 749 mmHg 83%
    02:00 -1°C° 0 mm 3 mps 749 mmHg 82%
    03:00 -2°C° 0 mm 4 mps 749 mmHg 80%
    04:00 -2°C° 0 mm 4 mps 748 mmHg 79%
    05:00 -2°C° 0 mm 3 mps 748 mmHg 78%
    06:00 -2°C° 0 mm 3 mps 747 mmHg 78%
    07:00 -2°C° 0 mm 4 mps 747 mmHg 78%
    08:00 -2°C° 0 mm 5 mps 746 mmHg 78%
    09:00 -2°C° 0 mm 5 mps 746 mmHg 77%
    10:00 -1°C° 0.3 mm 5 mps 746 mmHg 79%
    11:00 -1°C° 0.3 mm 5 mps 745 mmHg 81%
    12:00 -1°C° 0.3 mm 5 mps 745 mmHg 83%
    13:00 0°C° 0.3 mm 5 mps 745 mmHg 84%
    14:00 0°C° 0.3 mm 5 mps 745 mmHg 84%
    15:00 +1°C° 0.3 mm 5 mps 745 mmHg 85%
    16:00 +1°C° 0 mm 5 mps 745 mmHg 84%
    17:00 0°C° 0 mm 5 mps 745 mmHg 82%
    18:00 0°C° 0 mm 5 mps 745 mmHg 81%
    19:00 -1°C° 0 mm 4 mps 746 mmHg 84%
    20:00 -1°C° 0 mm 4 mps 746 mmHg 86%
    21:00 -2°C° 0 mm 4 mps 746 mmHg 88%
    22:00 -1°C° 0 mm 3 mps 746 mmHg 89%
    23:00 -1°C° 0 mm 3 mps 746 mmHg 90%

    22 March, Friday

    Time Temperature Precipitation Wind Pressure Humidity
    00:00 -1°C° 0 mm 3 mps 746 mmHg 92%
    01:00 -1°C° 0 mm 3 mps 746 mmHg 91%
    02:00 -1°C° 0 mm 3 mps 746 mmHg 90%
    03:00 +1°C° 0 mm 2 mps 746 mmHg 89%
    04:00 -1°C° 0 mm 3 mps 746 mmHg 89%
    05:00 -1°C° 0 mm 3 mps 745 mmHg 90%
    06:00 -1°C° 0 mm 3 mps 745 mmHg 91%
    07:00 -1°C° 0 mm 4 mps 744 mmHg 89%
    08:00 -1°C° 0 mm 5 mps 743 mmHg 87%
    09:00 0°C° 0 mm 5 mps 743 mmHg 85%
    10:00 -1°C° 0.3 mm 6 mps 742 mmHg 86%
    11:00 0°C° 0.3 mm 7 mps 741 mmHg 88%
    12:00 +1°C° 0.3 mm 8 mps 740 mmHg 90%
    13:00 +1°C° 0.1 mm 8 mps 740 mmHg 80%
    14:00 +2°C° 0.1 mm 8 mps 740 mmHg 69%
    15:00 +2°C° 0.1 mm 9 mps 740 mmHg 59%
    16:00 +1°C° 0 mm 8 mps 740 mmHg 61%
    17:00 +1°C° 0 mm 8 mps 740 mmHg 63%
    18:00 0°C° 0 mm 7 mps 741 mmHg 65%
    19:00 -1°C° 0 mm 7 mps 741 mmHg 68%
    20:00 -2°C° 0 mm 7 mps 741 mmHg 72%
    21:00 -3°C° 0 mm 7 mps 742 mmHg 76%
    22:00 -3°C° 0 mm 7 mps 742 mmHg 76%
    23:00 -3°C° 0 mm 7 mps 742 mmHg 77%

    23 March, Saturday

    Time Temperature Precipitation Wind Pressure Humidity
    00:00 -4°C° 0 mm 8 mps 742 mmHg 78%
    01:00 -4°C° 0 mm 8 mps 743 mmHg 79%
    02:00 -4°C° 0 mm 8 mps 743 mmHg 79%
    03:00 -3°C° 0 mm 7 mps 744 mmHg 80%
    04:00 -3°C° 0 mm 7 mps 744 mmHg 81%
    05:00 -3°C° 0 mm 7 mps 745 mmHg 82%
    06:00 -3°C° 0 mm 6 mps 745 mmHg 83%
    07:00 -3°C° 0 mm 6 mps 746 mmHg 81%
    08:00 -2°C° 0 mm 6 mps 746 mmHg 79%
    09:00 -2°C° 0 mm 6 mps 746 mmHg 77%
    10:00 -2°C° 0 mm 6 mps 747 mmHg 75%
    11:00 0°C° 0 mm 5 mps 747 mmHg 73%
    12:00 0°C° 0 mm 5 mps 747 mmHg 71%
    13:00 +1°C° 0 mm 5 mps 747 mmHg 70%
    14:00 +1°C° 0 mm 4 mps 747 mmHg 70%
    15:00 +3°C° 0 mm 4 mps 747 mmHg 69%
    16:00 +2°C° 0 mm 3 mps 747 mmHg 73%
    17:00 +3°C° 0 mm 2 mps 746 mmHg 76%
    18:00 +2°C° 0 mm 2 mps 746 mmHg 80%
    19:00 +2°C° 0 mm 2 mps 746 mmHg 82%
    20:00 +1°C° 0 mm 2 mps 746 mmHg 84%
    21:00 -1°C° 0 mm 2 mps 746 mmHg 85%
    22:00 0°C° 0 mm 3 mps 745 mmHg 84%
    23:00 0°C° 0 mm 3 mps 745 mmHg 82%

    24 March, Sunday

    Time Temperature Precipitation Wind Pressure Humidity
    00:00 0°C° 0 mm 4 mps 744 mmHg 81%
    01:00 0°C° 0.1 mm 4 mps 744 mmHg 84%
    02:00 0°C° 0.1 mm 4 mps 743 mmHg 88%
    03:00 0°C° 0.1 mm 4 mps 743 mmHg 91%
    04:00 +1°C° 0.1 mm 5 mps 743 mmHg 92%
    05:00 +2°C° 0.1 mm 5 mps 742 mmHg 94%
    06:00 +2°C° 0.1 mm 5 mps 742 mmHg 95%
    07:00 +2°C° 0.1 mm 6 mps 743 mmHg 88%
    08:00 0°C° 0.1 mm 7 mps 743 mmHg 81%
    09:00 0°C° 0.1 mm 8 mps 744 mmHg 73%
    10:00 0°C° 0 mm 8 mps 744 mmHg 67%
    11:00 +2°C° 0 mm 7 mps 745 mmHg 60%
    12:00 +2°C° 0 mm 7 mps 745 mmHg 53%
    13:00 +2°C° 0 mm 7 mps 745 mmHg 52%
    14:00 +3°C° 0 mm 7 mps 745 mmHg 51%
    15:00 +3°C° 0 mm 7 mps 745 mmHg 50%
    16:00 +3°C° 0 mm 6 mps 745 mmHg 53%
    17:00 +2°C° 0 mm 5 mps 745 mmHg 56%
    18:00 +3°C° 0 mm 4 mps 746 mmHg 58%
    19:00 +1°C° 0 mm 4 mps 746 mmHg 62%
    20:00 +1°C° 0 mm 3 mps 746 mmHg 65%
    21:00 0°C° 0 mm 3 mps 746 mmHg 68%
    22:00 -1°C° 0 mm 3 mps 746 mmHg 71%
    23:00 -1°C° 0 mm 2 mps 746 mmHg 73%
    Show more